CDT,Max TemperatureF,Mean TemperatureF,Min TemperatureF,Max Dew PointF,MeanDew PointF,Min DewpointF,Max Humidity, Mean Humidity, Min Humidity, Max Sea Level PressureIn, Mean Sea Level PressureIn, Min Sea Level PressureIn, Max VisibilityMiles, Mean VisibilityMiles, Min VisibilityMiles, Max Wind SpeedMPH, Mean Wind SpeedMPH, Max Gust SpeedMPH,PrecipitationIn, CloudCover, Events, WindDirDegrees
2012-6-1,72,58,46,49,42,34,93,57,27,29.99,29.89,29.78,10,10,8,9,2,,0.00,1,,222
2012-6-2,75,64,52,51,46,42,83,53,32,29.77,29.75,29.74,10,10,2,14,4,18,0.00,0,,303
2012-6-3,75,65,55,54,52,50,84,59,42,29.83,29.80,29.76,10,10,10,13,5,,0.00,3,,193
2012-6-4,84,70,59,57,55,53,87,53,37,29.93,29.89,29.81,10,10,4,8,3,,0.00,3,,344
2012-6-5,84,72,61,58,55,51,87,55,33,30.00,29.96,29.92,10,10,6,9,5,,0.00,0,,70
2012-6-6,82,72,61,58,55,52,78,56,35,30.04,30.01,29.98,10,10,9,12,8,23,0.00,1,,139
2012-6-7,82,73,64,61,58,52,66,57,47,30.08,30.03,29.96,10,10,10,15,8,22,0.00,2,,193
2012-6-8,90,79,69,65,59,56,69,55,37,29.95,29.86,29.73,10,10,2,15,9,23,0.01,2,Rain,218
2012-6-9,91,80,70,59,54,51,59,41,27,29.74,29.69,29.62,10,10,10,20,11,29,0.00,0,,185
2012-6-10,93,78,63,68,62,55,93,63,34,29.76,29.65,29.55,10,8,0,28,15,47,1.07,5,Fog-Rain-Thunderstorm,208
2012-6-11,73,66,57,60,52,39,93,64,42,29.99,29.80,29.68,10,10,9,21,10,30,0.00,1,,254
2012-6-12,68,60,53,50,42,40,67,53,36,30.18,30.12,30.01,10,10,10,15,10,23,0.00,2,,307
2012-6-13,77,65,55,51,48,44,74,54,40,30.12,30.02,29.90,10,10,10,20,7,26,0.00,2,Rain,145
2012-6-14,70,66,62,66,59,49,94,78,52,29.90,29.82,29.76,10,8,0,25,13,38,0.88,6,Rain-Thunderstorm,131
2012-6-15,81,72,63,64,61,58,90,68,45,29.99,29.95,29.88,10,10,8,9,5,,0.00,1,,49
2012-6-16,82,74,66,68,63,52,94,75,48,29.94,29.86,29.77,10,8,2,16,5,25,0.10,4,Rain,307
2012-6-17,78,67,57,65,58,51,94,72,43,29.87,29.68,29.45,10,9,1,20,8,31,1.18,3,Rain-Thunderstorm,193
2012-6-18,90,78,66,72,65,57,100,72,33,29.62,29.48,29.41,10,9,2,18,10,22,0.41,3,Rain-Thunderstorm,198
2012-6-19,91,78,66,72,66,57,88,70,48,29.75,29.63,29.52,10,9,0,26,13,54,0.52,5,Fog-Rain-Thunderstorm,128
2012-6-20,82,73,63,68,65,61,93,78,56,29.87,29.73,29.61,10,9,2,21,11,28,0.15,6,Rain-Thunderstorm,246
2012-6-21,78,69,60,61,56,52,93,66,42,30.00,29.95,29.88,10,10,9,17,9,23,0.01,1,,277
2012-6-22,81,70,60,59,55,50,90,59,35,30.02,29.98,29.94,10,10,6,12,5,18,0.00,1,,297
2012-6-23,79,71,64,63,60,55,84,66,50,29.95,29.91,29.87,10,10,10,14,5,23,0.01,2,Rain,163
2012-6-24,84,75,66,68,63,51,90,66,44,30.08,29.98,29.91,10,10,8,13,5,16,0.00,1,,48
2012-6-25,78,69,60,51,49,45,67,48,35,30.17,30.10,30.01,10,10,10,15,8,22,0.00,0,,96
2012-6-26,82,70,59,56,51,46,75,50,30,30.04,29.89,29.73,10,10,10,20,10,25,0.00,0,,144
2012-6-27,93,82,70,75,65,56,74,57,48,29.71,29.66,29.62,10,9,2,12,8,,0.00,0,,152
2012-6-28,87,80,71,72,59,51,79,51,29,29.93,29.85,29.70,10,10,7,15,7,21,0.00,1,,333
2012-6-29,90,76,63,67,60,53,87,59,31,29.89,29.84,29.77,10,10,10,9,3,,0.00,0,,243
2012-6-30,89,80,70,67,62,56,90,57,34,29.87,29.83,29.79,10,10,9,10,3,,0.00,0,,346